Location: *
(32.8140°S, 174.6161°E)
Time: 00:40:44
(UTC+00:00)

Cosmos 1606 - Pass Details

Date: 10 December 2019
Orbit: 505 x 528 km, 82.5° (Epoch: 20 January)

Event Time Altitude Azimuth Distance (km) Brightness Sun altitude
Exits shadow 16:05:31 - 351° (N) 1,855 5.1 -11.6°
Reaches altitude 10° 16:05:43 10° 350° (N) 1,771 5.0 -11.6°
Maximum altitude 16:09:37 78° 264° (W) 548 2.7 -10.9°
Drops below altitude 10° 16:13:33 10° 177° (S) 1,788 6.0 -10.3°
Sets 16:15:43 0° 175° (S) 2,682 7.0 -9.9°
